Location: Maignaut
(43.8886°N, 0.4051°E)
Time: 09:38:25
(UTC+00:00)

Daily predictions for brighter satellites

Satellite Brightness Start Highest point End
(mag) Time Altitude Azimuth Time Altitude Azimuth Time Altitude Azimuth
SL-24 R/B 4.1 17:15:28 10° SSE 17:19:42 64° ENE 17:24:09 10° N
CZ-4C R/B 2.4 17:15:51 10° SW 17:20:44 68° NW 17:26:38 10° NNE
CZ-4B R/B 3.2 17:17:59 10° SSE 17:23:28 78° ENE 17:29:05 10° NNW
Tsikada Rocket 4.1 17:17:28 10° S 17:23:48 82° E 17:30:07 10° N
FengYun 1-2 T 4.3 17:19:21 10° SSE 17:24:49 65° ENE 17:30:22 10° N
USA 234 4.3 17:20:02 10° ENE 17:25:27 29° N 17:30:53 10° NW
Cosmos 1400 Rocket 3.0 17:23:42 10° NNW 17:27:50 82° W 17:31:54 10° S
CZ-2D R/B 4.3 17:24:50 10° ESE 17:27:59 24° ENE 17:31:08 10° NNE
Cosmos 1354 Rocket 4.3 17:23:40 10° S 17:28:48 52° ESE 17:33:59 10° NNE
Meteor 2-5 Rocket 3.9 17:23:44 10° SSE 17:29:07 50° E 17:34:27 10° NNE
SL-14 R/B 3.6 17:26:02 10° SSE 17:29:42 44° E 17:33:25 10° NNE
Cosmos 1025 Rocket 3.9 17:26:21 10° SSW 17:30:34 53° WNW 17:34:50 10° N
Cosmos 972 4.4 17:26:38 10° NNW 17:31:58 70° ENE 17:36:53 10° SSE
Cosmos 1603 3.9 17:27:03 10° NNW 17:32:39 53° ENE 17:38:14 10° SE
Cosmos 2297 Rocket 4.2 17:28:56 10° W 17:33:18 22° NW 17:37:41 10° N
COSMOS 2455 4.0 17:31:18 10° SSE 17:35:55 23° ESE 17:40:26 10° ENE
ATLAS 3B R/B 2.8 17:32:31 10° NW 17:39:31 80° NE 17:46:47 10° SE
Cosmos 968 Rocket 4.2 17:38:20 10° SW 17:43:20 54° WNW 17:48:22 10° NNE
YAOGAN 1 3.7 17:40:17 10° ESE 17:43:35 22° ENE 17:46:54 10° NNE
Cosmos 1892 Rocket 4.5 17:39:58 10° SE 17:43:37 26° E 17:47:15 10° NNE
Cosmos 1606 Rocket 3.9 17:40:23 10° N 17:44:34 42° ENE 17:48:44 10° SSE
H-2A R/B 2.6 17:42:54 10° N 17:47:21 65° WNW 17:51:42 10° SSW
H-2A R/B 3.8 17:43:49 10° S 17:47:34 43° W 17:51:29 10° NNW
Cosmos 1626 2.3 17:44:43 10° SSW 17:48:25 77° W 17:52:07 10° N
CZ-2C R/B 3.4 17:44:05 10° SE 17:48:59 44° ENE 17:54:10 10° N
Cosmos 1939 Rocket 2.9 17:45:24 10° SSE 17:49:30 67° ENE 17:53:36 10° N
NOSS 7 (E) 4.4 17:46:37 10° SSW 17:50:35 83° SE 17:53:17 14° NE
CZ-4 R/B 2.1 17:52:01 10° SE 17:55:40 31° ENE 17:59:17 10° N
CSL-04 DEB 4.4 17:52:01 10° NNE 17:56:17 88° ESE 18:00:25 10° SSW
SKYMED 2 3.6 17:52:47 10° NNE 17:57:05 58° E 18:01:21 10° S
ATLAS 5 CENTAUR R/B 1.3 17:53:14 10° SW 17:57:11 89° SE 18:01:04 13° NE
MOS 1 Rocket 3.4 17:54:32 10° NNE 17:58:42 43° E 18:02:46 10° S
YAOGAN 3 4.5 17:56:11 10° SSE 18:00:31 73° ENE 18:04:53 10° N
BREEZE-M DEB (TANK) 2.3 17:57:11 10° WNW 18:00:51 69° SSW 18:02:38 15° SE
Meteor 2-10 Rocket 4.0 17:59:50 10° N 18:05:06 41° ENE 18:10:09 10° SE
Feng Yun 1-1 Rocket 4.1 18:00:47 10° SSE 18:06:11 81° ENE 18:11:42 10° NNW
Cosmos 1503 Rocket 4.5 18:02:06 10° SSW 18:07:24 64° WNW 18:12:46 10° NNE
Abrixas rocket 3.0 18:05:31 10° WNW 18:08:01 38° SSW 18:10:07 13° SE
Cosmos 2058 Rocket 3.5 18:05:00 10° N 18:09:12 38° ENE 18:13:25 10° SE
SJ 16-02 2.8 18:06:13 10° SE 18:08:46 18° ESE 18:08:46 18° ESE
Cosmos 2228 2.9 18:05:15 10° N 18:09:32 88° E 18:13:48 10° S
H-2A R/B 2.3 18:05:40 10° SE 18:10:13 39° ENE 18:14:55 10° N
Cosmos 2263 Rocket 2.5 18:04:52 10° SSW 18:10:32 71° WNW 18:16:14 10° NNE
Cosmos 1315 Rocket 2.9 18:07:10 10° NNW 18:11:08 80° W 18:15:07 10° S
Okean 1-7 Rocket 4.1 18:08:50 10° SSE 18:12:59 37° E 18:16:13 15° NNE
EXPRESS MD2 4.3 18:05:58 10° WNW 18:14:22 59° NNE 18:16:50 26° E
SAR-Lupe-4 3.9 18:12:53 23° NE 18:14:40 42° E 18:18:04 10° S
Meteor 1-24 Rocket 3.6 18:10:04 10° S 18:15:29 84° W 18:20:50 10° N
Cosmos 1300 3.3 18:15:42 10° NNW 18:19:29 59° W 18:23:13 10° S
Cosmos 1689 Rocket 2.3 18:22:29 43° ESE 18:22:29 43° ESE 18:24:55 10° S
Cosmos 1818 4.4 18:19:42 10° S 18:24:18 29° ESE 18:25:19 27° E
SAR-Lupe-1 4.0 18:24:36 30° NNE 18:26:09 58° ESE 18:29:40 10° S
Cosmos 1943 3.6 18:23:03 10° NNW 18:28:41 64° WSW 18:34:15 10° S
ISS -1.7 18:26:53 10° S 18:28:24 16° SSE 18:28:24 16° SSE
Helios 1A Rocket 3.0 18:25:52 10° SSE 18:29:51 50° ENE 18:33:53 10° N
SJ-11-01 4.3 18:27:40 10° SSE 18:32:16 56° ENE 18:36:52 10° N
Cosmos 1726 Rocket 3.7 18:28:27 10° NNW 18:32:48 74° W 18:37:10 10° S
ARGOS 3.3 18:27:48 10° SE 18:32:53 46° ENE 18:38:00 10° N
USA 267 3.6 18:29:51 27° ENE 18:33:05 46° SE 18:39:18 10° SSW
CSL-04 Debris 4.3 18:29:03 10° SE 18:34:13 49° ENE 18:39:25 10° N
Cosmos 1844 4.3 18:29:47 10° SSE 18:34:43 32° ESE 18:35:08 32° E
Meteor 1-21 Rocket 4.5 18:30:53 10° SSE 18:36:02 42° E 18:38:13 29° NE
Cosmos 2279 Rocket 4.3 18:30:41 10° NNW 18:36:55 68° W 18:43:06 10° S
Lacrosse 5 2.6 18:32:30 10° NW 18:37:04 32° NNE 18:37:41 31° NE
Okean-O 2.5 18:34:38 10° SSE 18:39:03 84° ENE 18:43:31 10° NNW
Cosmos 773 Rocket 4.2 18:34:03 10° NNW 18:39:12 71° WSW 18:44:18 10° S
ATLAS 2AS CENTAUR R/B 4.2 18:34:16 10° W 18:41:24 35° NW 18:48:02 11° NNE
CZ-2C R/B 3.1 18:43:08 38° E 18:43:20 38° E 18:48:29 10° SSE
Aureole 2 Rocket 4.5 18:40:37 10° S 18:41:09 14° S 18:41:09 14° S
COSMO-SKYMED 1 3.7 18:41:01 10° N 18:45:08 42° WNW 18:49:13 10° SW
ERS-2 2.9 18:46:37 17° N 18:49:09 50° WNW 18:52:39 10° SSW
X-37B 3.0 18:46:52 10° SSW 18:47:55 15° S 18:47:55 15° S
CZ-4B R/B 3.8 18:46:59 10° NNW 18:49:44 23° WNW 18:52:24 10° WSW
Cosmos 158 Rocket 4.4 18:46:57 10° N 18:51:25 41° NE 18:51:25 41° NE
BREEZE-M DEB (TANK) 4.5 18:51:10 10° NW 18:51:43 15° NW 18:51:43 15° NW
Cosmos 1538 Rocket 4.0 18:57:58 10° NNW 19:03:09 77° WSW 19:08:18 10° SSE
Cosmos 1844 Rocket 2.5 19:00:36 10° SSW 19:06:14 72° ESE 19:07:13 59° NE
USA 234 3.6 19:06:27 42° NE 19:07:30 46° NNE 19:13:41 10° NW
Meteor 2-1 Rocket 4.1 19:03:09 10° N 19:08:48 89° W 19:14:18 10° S
CZ-4C R/B 4.3 19:06:39 10° WNW 19:10:33 19° NNW 19:13:43 14° NNE
Cosmos 489 Rocket 4.3 19:06:33 10° NNW 19:12:57 78° ENE 19:15:41 37° SSE
Cosmos 1092 Rocket 3.8 19:08:16 10° S 19:14:27 74° E 19:17:18 34° NNE
Iridium 4 Rocket 4.1 19:11:27 10° N 19:23:28 - S 19:15:35 46° NNE
YAOGAN 1 4.0 19:15:26 10° SSW 19:19:27 37° W 19:23:30 10° NNW
COSMOS 2455 3.2 19:15:24 10° SW 19:21:21 62° NW 19:23:38 38° N
Cosmos 2344 4.5 19:15:38 10° NNW 19:24:28 50° NE 19:26:41 45° ENE
CSL-04 Rocket 4.1 19:23:58 10° S 19:29:15 61° WSW 19:34:40 10° NNW
CZ-4 R/B 3.8 19:27:23 10° SSW 19:30:42 23° W 19:33:59 10° NW
ATLAS 5 CENTAUR R/B 3.9 19:39:51 10° WNW 19:42:34 16° NNW 19:42:38 16° NNW
SJ 16-02 3.1 19:43:18 10° SW 19:45:49 29° WSW 19:45:49 29° WSW
H-2A R/B 4.0 19:45:43 10° SSW 19:49:47 25° W 19:53:57 10° NW
NOSS 3-1 (C) 4.3 19:50:40 10° NNW 19:56:36 54° N 19:56:36 54° N
USA 267 3.8 20:17:12 54° WNW 20:17:12 54° WNW 20:22:36 10° WSW
Lacrosse 5 4.1 20:15:21 10° NW 20:16:54 20° NW 20:16:54 20° NW
CZ-2C R/B 4.4 20:24:39 30° W 20:24:39 30° W 20:28:24 10° SW
